QPF
0.03 0.03 0.03 0.04 0.05 0.05 0.05 0.05 0.05 0.06 0.05 0.06 0.05 0.04 0.03 0.02 0.01 0.01 0.00 0.00 0.01 0.01 0.02 0.02 0.02 0.01 0.01 0.00 0.00 0.00 0.00 0.00 0.00 0.00 0.00 0.00 0.00 0.00 0.00 0.00 0.00 0.00 0.00
0.02 0.03 0.03 0.04 0.05 0.06 0.06 0.06 0.06 0.06 0.06 0.06 0.06 0.05 0.05 0.04 0.03 0.03 0.02 0.01 0.00 0.01 0.02 0.03 0.02 0.01 0.01 0.01 0.00 0.00 0.00 0.00 0.00 0.00 0.00 0.00 0.00 0.00 0.00 0.00 0.00 0.00 0.00
0.02 0.03 0.03 0.03 0.04 0.07 0.08 0.08 0.08 0.08 0.07 0.07 0.07 0.06 0.06 0.05 0.04 0.04 0.03 0.01 0.00 0.01 0.02 0.02 0.01 0.01 0.01 0.01 0.01 0.01 0.00 0.00 0.00 0.00 0.00 0.00 0.00 0.00 0.01 0.00 0.00 0.00 0.01
0.02 0.02 0.03 0.03 0.03 0.06 0.08 0.09 0.09 0.08 0.07 0.06 0.05 0.05 0.05 0.05 0.04 0.03 0.02 0.01 0.00 0.00 0.01 0.01 0.01 0.01 0.01 0.01 0.01 0.01 0.01 0.00 0.00 0.00 0.00 0.00 0.00 0.00 0.01 0.00 0.00 0.01 0.01
0.02 0.02 0.02 0.02 0.03 0.05 0.06 0.08 0.08 0.08 0.07 0.06 0.05 0.05 0.05 0.05 0.04 0.03 0.02 0.01 0.00 0.00 0.00 0.01 0.01 0.01 0.00 0.01 0.01 0.01 0.01 0.01 0.01 0.00 0.00 0.00 0.00 0.00 0.01 0.01 0.00 0.00 0.01
0.03 0.02 0.02 0.02 0.03 0.04 0.06 0.06 0.06 0.07 0.07 0.07 0.07 0.06 0.06 0.05 0.05 0.03 0.02 0.01 0.01 0.00 0.00 0.01 0.01 0.01 0.01 0.01 0.01 0.01 0.01 0.01 0.01 0.01 0.00 0.00 0.00 0.00 0.01 0.00 0.00 0.00 0.01
0.03 0.03 0.03 0.02 0.02 0.03 0.05 0.05 0.06 0.07 0.07 0.08 0.09 0.09 0.07 0.06 0.05 0.05 0.04 0.02 0.01 0.01 0.00 0.00 0.01 0.00 0.00 0.01 0.01 0.01 0.01 0.01 0.01 0.01 0.01 0.01 0.01 0.00 0.01 0.00 0.00 0.01 0.01
0.04 0.03 0.03 0.03 0.03 0.02 0.03 0.05 0.06 0.07 0.08 0.08 0.09 0.10 0.09 0.08 0.07 0.05 0.05 0.04 0.03 0.02 0.01 0.01 0.00 0.00 0.00 0.00 0.00 0.01 0.01 0.01 0.01 0.01 0.01 0.01 0.01 0.01 0.01 0.01 0.01 0.01 0.01
0.05 0.04 0.03 0.03 0.03 0.03 0.03 0.04 0.06 0.06 0.08 0.09 0.08 0.10 0.09 0.07 0.05 0.05 0.05 0.04 0.04 0.03 0.02 0.01 0.01 0.00 0.00 0.00 0.00 0.00 0.00 0.01 0.01 0.01 0.01 0.01 0.01 0.01 0.01 0.01 0.01 0.01 0.01
0.05 0.04 0.04 0.04 0.04 0.04 0.03 0.03 0.05 0.06 0.07 0.08 0.09 0.09 0.08 0.07 0.06 0.05 0.04 0.04 0.04 0.04 0.03 0.02 0.01 0.01 0.00 0.00 0.00 0.00 0.00 0.00 0.01 0.01 0.01 0.01 0.01 0.01 0.02 0.02 0.02 0.02 0.01
0.05 0.05 0.05 0.05 0.05 0.05 0.05 0.04 0.04 0.05 0.06 0.07 0.08 0.09 0.08 0.09 0.08 0.07 0.06 0.05 0.05 0.05 0.04 0.03 0.02 0.01 0.01 0.00 0.00 0.00 0.00 0.00 0.00 0.01 0.01 0.01 0.01 0.02 0.02 0.02 0.02 0.02 0.02
0.06 0.05 0.04 0.05 0.06 0.06 0.05 0.05 0.05 0.05 0.05 0.06 0.07 0.08 0.08 0.08 0.08 0.07 0.06 0.05 0.06 0.06 0.05 0.05 0.04 0.03 0.02 0.01 0.01 0.00 0.00 0.00 0.00 0.00 0.00 0.01 0.01 0.01 0.02 0.02 0.02 0.01 0.01
0.06 0.06 0.06 0.05 0.06 0.06 0.06 0.06 0.05 0.05 0.06 0.06 0.07 0.07 0.07 0.06 0.05 0.06 0.07 0.07 0.06 0.06 0.06 0.05 0.04 0.03 0.03 0.02 0.01 0.01 0.00 0.00 0.00 0.00 0.00 0.00 0.00 0.01 0.01 0.01 0.02 0.02 0.02
0.06 0.06 0.06 0.06 0.06 0.06 0.07 0.07 0.07 0.06 0.06 0.07 0.07 0.07 0.08 0.07 0.06 0.06 0.07 0.07 0.08 0.07 0.07 0.05 0.04 0.03 0.03 0.02 0.02 0.01 0.01 0.01 0.00 0.00 0.00 0.00 0.00 0.00 0.00 0.01 0.01 0.01 0.02
0.09 0.08 0.06 0.06 0.07 0.08 0.09 0.09 0.09 0.08 0.08 0.07 0.07 0.07 0.07 0.08 0.07 0.07 0.06 0.07 0.07 0.08 0.07 0.04 0.03 0.03 0.02 0.02 0.02 0.02 0.01 0.01 0.01 0.00 0.00 0.00 0.00 0.00 0.00 0.00 0.01 0.01 0.01
0.13 0.13 0.11 0.08 0.06 0.08 0.10 0.11 0.11 0.10 0.10 0.09 0.08 0.08 0.07 0.08 0.09 0.07 0.07 0.07 0.06 0.07 0.06 0.04 0.03 0.02 0.03 0.03 0.02 0.02 0.01 0.01 0.01 0.00 0.00 0.00 0.00 0.00 0.00 0.00 0.00 0.00 0.01
0.13 0.16 0.15 0.13 0.09 0.08 0.09 0.09 0.09 0.08 0.09 0.09 0.10 0.10 0.10 0.09 0.10 0.10 0.09 0.08 0.07 0.08 0.08 0.05 0.03 0.03 0.04 0.04 0.03 0.03 0.02 0.01 0.01 0.01 0.00 0.00 0.00 0.00 0.00 0.01 0.01 0.01 0.00
0.12 0.15 0.15 0.14 0.11 0.09 0.09 0.09 0.08 0.06 0.06 0.06 0.07 0.08 0.09 0.09 0.10 0.10 0.10 0.09 0.07 0.07 0.08 0.07 0.05 0.04 0.05 0.05 0.04 0.03 0.02 0.01 0.01 0.01 0.01 0.00 0.00 0.00 0.00 0.00 0.01 0.01 0.01
0.10 0.14 0.14 0.14 0.12 0.10 0.08 0.08 0.07 0.06 0.04 0.04 0.05 0.06 0.06 0.08 0.09 0.09 0.09 0.08 0.08 0.07 0.06 0.06 0.05 0.04 0.04 0.04 0.04 0.03 0.03 0.02 0.01 0.01 0.01 0.01 0.01 0.01 0.01 0.01 0.01 0.01 0.01
0.07 0.11 0.12 0.13 0.13 0.12 0.10 0.08 0.07 0.06 0.05 0.05 0.04 0.05 0.05 0.06 0.07 0.08 0.09 0.09 0.09 0.09 0.08 0.07 0.06 0.04 0.04 0.04 0.04 0.03 0.03 0.02 0.01 0.01 0.01 0.01 0.01 0.01 0.01 0.01 0.01 0.01 0.01
0.06 0.08 0.11 0.13 0.14 0.13 0.12 0.10 0.08 0.06 0.05 0.05 0.05 0.04 0.04 0.05 0.05 0.06 0.08 0.08 0.09 0.09 0.10 0.10 0.08 0.06 0.05 0.05 0.04 0.03 0.03 0.02 0.02 0.01 0.02 0.01 0.02 0.02 0.01 0.01 0.02 0.02 0.02
0.06 0.06 0.08 0.11 0.14 0.13 0.13 0.12 0.11 0.09 0.06 0.05 0.05 0.05 0.05 0.05 0.04 0.05 0.06 0.07 0.07 0.07 0.07 0.07 0.07 0.06 0.04 0.04 0.03 0.03 0.03 0.03 0.02 0.02 0.02 0.02 0.02 0.02 0.02 0.02 0.03 0.03 0.03
0.05 0.05 0.05 0.07 0.11 0.11 0.11 0.13 0.12 0.11 0.10 0.07 0.06 0.06 0.05 0.05 0.06 0.05 0.06 0.07 0.07 0.06 0.05 0.05 0.05 0.04 0.04 0.03 0.04 0.04 0.03 0.03 0.02 0.02 0.02 0.03 0.02 0.02 0.02 0.02 0.03 0.03 0.03
0.06 0.05 0.04 0.05 0.07 0.10 0.10 0.09 0.12 0.12 0.12 0.10 0.08 0.07 0.07 0.07 0.07 0.08 0.07 0.07 0.07 0.07 0.06 0.05 0.05 0.04 0.04 0.04 0.05 0.05 0.04 0.04 0.03 0.02 0.02 0.02 0.02 0.02 0.02 0.02 0.03 0.03 0.03
0.04 0.04 0.04 0.03 0.04 0.07 0.09 0.09 0.10 0.12 0.12 0.10 0.08 0.08 0.08 0.08 0.08 0.09 0.08 0.07 0.07 0.06 0.07 0.07 0.07 0.06 0.06 0.07 0.07 0.08 0.08 0.07 0.06 0.04 0.02 0.02 0.02 0.02 0.02 0.02 0.03 0.03 0.04
0.03 0.04 0.04 0.04 0.03 0.04 0.06 0.08 0.09 0.12 0.14 0.12 0.10 0.10 0.09 0.09 0.11 0.10 0.08 0.08 0.08 0.06 0.07 0.08 0.09 0.08 0.06 0.07 0.08 0.07 0.06 0.06 0.05 0.04 0.03 0.02 0.02 0.03 0.04 0.03 0.03 0.03 0.04
MSLP
1013.09 1013.45 1013.74 1013.99 1014.23 1014.48 1014.76 1015.06 1015.36 1015.63 1015.85 1016.00 1016.07 1016.08 1016.06 1016.05 1016.06 1016.13 1016.24 1016.39 1016.54 1016.67 1016.75 1016.77 1016.75 1016.68 1016.61 1016.56 1016.53 1016.56 1016.62 1016.71 1016.81 1016.89 1016.96 1017.00 1017.01 1017.00 1016.97 1016.94 1016.90 1016.85 1016.79
1012.71 1013.10 1013.42 1013.71 1013.98 1014.25 1014.55 1014.86 1015.17 1015.45 1015.68 1015.83 1015.90 1015.91 1015.88 1015.84 1015.82 1015.85 1015.92 1016.02 1016.14 1016.25 1016.32 1016.34 1016.31 1016.24 1016.16 1016.08 1016.03 1016.02 1016.05 1016.11 1016.19 1016.28 1016.36 1016.42 1016.47 1016.49 1016.51 1016.51 1016.51 1016.49 1016.47
1012.31 1012.73 1013.11 1013.44 1013.75 1014.06 1014.37 1014.70 1015.01 1015.29 1015.52 1015.67 1015.73 1015.73 1015.68 1015.60 1015.54 1015.51 1015.52 1015.58 1015.65 1015.73 1015.78 1015.81 1015.78 1015.73 1015.65 1015.57 1015.51 1015.48 1015.48 1015.51 1015.57 1015.64 1015.72 1015.80 1015.88 1015.94 1016.00 1016.05 1016.08 1016.11 1016.12
1011.92 1012.39 1012.81 1013.19 1013.55 1013.89 1014.22 1014.55 1014.86 1015.14 1015.36 1015.50 1015.56 1015.55 1015.47 1015.35 1015.24 1015.15 1015.09 1015.08 1015.11 1015.15 1015.19 1015.21 1015.20 1015.17 1015.11 1015.05 1014.98 1014.93 1014.91 1014.91 1014.94 1015.00 1015.07 1015.15 1015.24 1015.33 1015.42 1015.51 1015.59 1015.66 1015.71
1011.55 1012.05 1012.52 1012.95 1013.35 1013.72 1014.06 1014.39 1014.70 1014.97 1015.18 1015.32 1015.38 1015.35 1015.26 1015.11 1014.95 1014.80 1014.68 1014.60 1014.56 1014.56 1014.58 1014.60 1014.60 1014.59 1014.56 1014.51 1014.45 1014.39 1014.35 1014.32 1014.32 1014.35 1014.40 1014.47 1014.55 1014.66 1014.77 1014.88 1014.99 1015.10 1015.20
1011.18 1011.72 1012.23 1012.70 1013.12 1013.50 1013.85 1014.17 1014.47 1014.74 1014.95 1015.10 1015.16 1015.15 1015.05 1014.90 1014.70 1014.50 1014.32 1014.17 1014.07 1014.02 1014.00 1014.01 1014.01 1014.02 1014.00 1013.97 1013.91 1013.85 1013.79 1013.74 1013.70 1013.69 1013.70 1013.74 1013.81 1013.91 1014.02 1014.15 1014.28 1014.42 1014.55
1010.80 1011.36 1011.90 1012.39 1012.83 1013.21 1013.55 1013.87 1014.16 1014.42 1014.65 1014.82 1014.92 1014.93 1014.86 1014.71 1014.51 1014.27 1014.04 1013.83 1013.67 1013.56 1013.50 1013.47 1013.46 1013.46 1013.45 1013.42 1013.37 1013.30 1013.22 1013.14 1013.06 1013.01 1012.98 1012.98 1013.02 1013.10 1013.20 1013.32 1013.47 1013.62 1013.78
1010.39 1010.96 1011.51 1012.01 1012.44 1012.82 1013.15 1013.45 1013.74 1014.01 1014.26 1014.47 1014.62 1014.69 1014.66 1014.55 1014.36 1014.11 1013.85 1013.59 1013.37 1013.19 1013.07 1013.00 1012.96 1012.94 1012.91 1012.87 1012.81 1012.73 1012.62 1012.51 1012.40 1012.31 1012.25 1012.21 1012.22 1012.26 1012.33 1012.45 1012.58 1012.74 1012.92
1009.93 1010.50 1011.05 1011.54 1011.96 1012.32 1012.64 1012.93 1013.22 1013.51 1013.79 1014.06 1014.27 1014.40 1014.44 1014.38 1014.22 1013.98 1013.70 1013.41 1013.14 1012.90 1012.72 1012.59 1012.50 1012.43 1012.37 1012.31 1012.22 1012.12 1011.99 1011.86 1011.73 1011.61 1011.51 1011.45 1011.42 1011.43 1011.48 1011.56 1011.68 1011.83 1012.01
1009.43 1009.99 1010.52 1010.99 1011.39 1011.73 1012.03 1012.32 1012.61 1012.92 1013.25 1013.57 1013.85 1014.06 1014.17 1014.17 1014.06 1013.84 1013.56 1013.25 1012.94 1012.65 1012.40 1012.21 1012.05 1011.93 1011.82 1011.71 1011.60 1011.46 1011.32 1011.17 1011.03 1010.90 1010.79 1010.71 1010.66 1010.64 1010.66 1010.71 1010.80 1010.93 1011.10
1008.90 1009.44 1009.95 1010.39 1010.76 1011.08 1011.36 1011.64 1011.94 1012.28 1012.64 1013.01 1013.35 1013.63 1013.81 1013.87 1013.80 1013.62 1013.36 1013.04 1012.70 1012.37 1012.07 1011.81 1011.59 1011.41 1011.24 1011.08 1010.92 1010.77 1010.61 1010.45 1010.31 1010.18 1010.07 1009.99 1009.93 1009.90 1009.89 1009.92 1009.97 1010.07 1010.21
1008.36 1008.88 1009.35 1009.76 1010.10 1010.40 1010.66 1010.94 1011.25 1011.60 1011.99 1012.40 1012.78 1013.11 1013.33 1013.45 1013.43 1013.28 1013.04 1012.73 1012.38 1012.03 1011.69 1011.38 1011.11 1010.86 1010.63 1010.41 1010.21 1010.02 1009.84 1009.69 1009.55 1009.44 1009.36 1009.29 1009.24 1009.20 1009.18 1009.17 1009.19 1009.24 1009.35
1007.83 1008.32 1008.76 1009.13 1009.45 1009.72 1009.97 1010.25 1010.56 1010.92 1011.32 1011.74 1012.15 1012.50 1012.75 1012.89 1012.91 1012.80 1012.59 1012.30 1011.97 1011.61 1011.25 1010.91 1010.58 1010.28 1009.99 1009.72 1009.46 1009.24 1009.04 1008.89 1008.76 1008.68 1008.62 1008.57 1008.54 1008.50 1008.46 1008.42 1008.40 1008.41 1008.47
1007.33 1007.79 1008.19 1008.54 1008.83 1009.08 1009.33 1009.60 1009.91 1010.27 1010.67 1011.08 1011.48 1011.83 1012.09 1012.24 1012.28 1012.20 1012.02 1011.77 1011.46 1011.12 1010.76 1010.40 1010.04 1009.69 1009.34 1009.01 1008.71 1008.44 1008.22 1008.05 1007.93 1007.86 1007.83 1007.80 1007.78 1007.75 1007.70 1007.64 1007.58 1007.54 1007.56
1006.89 1007.32 1007.69 1008.01 1008.28 1008.52 1008.77 1009.04 1009.34 1009.69 1010.07 1010.46 1010.83 1011.15 1011.40 1011.55 1011.59 1011.54 1011.39 1011.18 1010.91 1010.60 1010.26 1009.89 1009.51 1009.12 1008.72 1008.33 1007.97 1007.65 1007.39 1007.19 1007.06 1007.00 1006.97 1006.96 1006.94 1006.91 1006.85 1006.76 1006.67 1006.59 1006.57
1006.52 1006.92 1007.27 1007.57 1007.83 1008.08 1008.33 1008.60 1008.90 1009.23 1009.58 1009.93 1010.26 1010.54 1010.75 1010.88 1010.92 1010.88 1010.77 1010.59 1010.37 1010.10 1009.78 1009.43 1009.03 1008.60 1008.15 1007.71 1007.28 1006.90 1006.58 1006.34 1006.18 1006.09 1006.05 1006.03 1006.00 1005.96 1005.88 1005.77 1005.65 1005.55 1005.51
1006.25 1006.62 1006.95 1007.24 1007.51 1007.77 1008.03 1008.31 1008.60 1008.92 1009.24 1009.54 1009.82 1010.04 1010.21 1010.30 1010.34 1010.30 1010.22 1010.08 1009.90 1009.67 1009.38 1009.04 1008.64 1008.18 1007.69 1007.18 1006.68 1006.22 1005.84 1005.53 1005.31 1005.17 1005.09 1005.03 1004.98 1004.90 1004.80 1004.67 1004.54 1004.44 1004.40
1006.08 1006.43 1006.75 1007.05 1007.33 1007.60 1007.88 1008.17 1008.46 1008.76 1009.04 1009.30 1009.52 1009.69 1009.81 1009.87 1009.89 1009.85 1009.79 1009.68 1009.53 1009.33 1009.07 1008.74 1008.33 1007.85 1007.32 1006.75 1006.19 1005.66 1005.19 1004.80 1004.51 1004.30 1004.14 1004.03 1003.92 1003.80 1003.67 1003.53 1003.39 1003.30 1003.30
1006.00 1006.34 1006.66 1006.97 1007.27 1007.56 1007.86 1008.15 1008.44 1008.72 1008.97 1009.19 1009.36 1009.48 1009.55 1009.58 1009.57 1009.53 1009.47 1009.38 1009.26 1009.09 1008.84 1008.52 1008.11 1007.61 1007.05 1006.44 1005.81 1005.22 1004.67 1004.20 1003.82 1003.51 1003.27 1003.08 1002.90 1002.73 1002.56 1002.40 1002.27 1002.21 1002.25
1006.00 1006.34 1006.67 1006.99 1007.30 1007.61 1007.92 1008.22 1008.50 1008.76 1008.98 1009.15 1009.28 1009.35 1009.39 1009.38 1009.35 1009.30 1009.24 1009.16 1009.05 1008.89 1008.66 1008.34 1007.93 1007.43 1006.85 1006.21 1005.55 1004.90 1004.29 1003.74 1003.27 1002.87 1002.54 1002.25 1001.99 1001.76 1001.55 1001.37 1001.26 1001.24 1001.34
1006.07 1006.41 1006.74 1007.07 1007.39 1007.70 1008.01 1008.30 1008.57 1008.80 1008.99 1009.12 1009.21 1009.25 1009.25 1009.22 1009.16 1009.10 1009.03 1008.95 1008.84 1008.68 1008.46 1008.15 1007.75 1007.25 1006.68 1006.04 1005.36 1004.69 1004.04 1003.44 1002.90 1002.42 1001.99 1001.61 1001.27 1000.96 1000.71 1000.51 1000.41 1000.44 1000.61
1006.17 1006.50 1006.83 1007.15 1007.46 1007.77 1008.06 1008.32 1008.56 1008.76 1008.92 1009.02 1009.08 1009.09 1009.06 1009.01 1008.94 1008.86 1008.78 1008.69 1008.57 1008.41 1008.19 1007.90 1007.52 1007.05 1006.50 1005.89 1005.23 1004.57 1003.91 1003.28 1002.69 1002.14 1001.64 1001.18 1000.76 1000.39 1000.09 999.88 999.79 999.85 1000.08
1006.26 1006.58 1006.89 1007.19 1007.47 1007.74 1008.00 1008.22 1008.42 1008.59 1008.71 1008.78 1008.81 1008.80 1008.76 1008.69 1008.61 1008.52 1008.43 1008.33 1008.21 1008.05 1007.84 1007.56 1007.21 1006.78 1006.28 1005.72 1005.11 1004.49 1003.85 1003.23 1002.62 1002.04 1001.49 1000.96 1000.48 1000.06 999.72 999.49 999.41 999.49 999.77
1006.30 1006.59 1006.87 1007.13 1007.37 1007.59 1007.79 1007.97 1008.12 1008.24 1008.33 1008.38 1008.39 1008.37 1008.33 1008.26 1008.17 1008.08 1007.98 1007.87 1007.74 1007.58 1007.38 1007.13 1006.82 1006.44 1006.00 1005.51 1004.97 1004.41 1003.83 1003.24 1002.65 1002.06 1001.49 1000.93 1000.42 999.96 999.59 999.35 999.26 999.37 999.68
1006.27 1006.52 1006.74 1006.95 1007.13 1007.29 1007.42 1007.55 1007.65 1007.74 1007.80 1007.83 1007.84 1007.82 1007.77 1007.71 1007.63 1007.54 1007.44 1007.32 1007.19 1007.04 1006.85 1006.63 1006.36 1006.03 1005.66 1005.25 1004.79 1004.31 1003.80 1003.27 1002.72 1002.16 1001.59 1001.04 1000.51 1000.04 999.67 999.42 999.34 999.45 999.78
1006.13 1006.33 1006.50 1006.64 1006.76 1006.85 1006.94 1007.01 1007.07 1007.12 1007.17 1007.20 1007.21 1007.20 1007.17 1007.12 1007.05 1006.96 1006.87 1006.75 1006.62 1006.47 1006.30 1006.10 1005.86 1005.58 1005.27 1004.93 1004.56 1004.15 1003.72 1003.26 1002.77 1002.26 1001.73 1001.21 1000.71 1000.26 999.90 999.66 999.59 999.71 1000.04
Thickness
5706 5706 5706 5706 5705 5705 5704 5703 5703 5703 5701 5700 5699 5698 5697 5696 5694 5693 5691 5690 5688 5686 5684 5682 5680 5678 5675 5672 5669 5667 5664 5662 5659 5656 5654 5651 5649 5646 5644 5641 5639 5636 5634
5699 5699 5698 5698 5698 5698 5698 5697 5697 5697 5696 5695 5694 5694 5693 5691 5690 5688 5686 5685 5683 5682 5680 5678 5677 5674 5672 5669 5666 5663 5660 5658 5655 5652 5650 5647 5644 5642 5639 5637 5634 5631 5629
5691 5691 5690 5690 5690 5691 5691 5690 5690 5690 5689 5689 5688 5688 5687 5686 5685 5683 5681 5680 5678 5677 5675 5674 5672 5670 5668 5665 5662 5659 5657 5654 5651 5648 5645 5643 5640 5637 5635 5632 5629 5627 5624
5682 5682 5681 5681 5682 5682 5682 5682 5682 5681 5681 5681 5681 5680 5680 5680 5679 5678 5676 5675 5673 5672 5670 5669 5667 5665 5664 5661 5659 5656 5653 5650 5647 5644 5641 5638 5636 5633 5631 5628 5625 5622 5619
5672 5672 5672 5673 5673 5673 5672 5673 5673 5673 5672 5672 5672 5672 5672 5672 5672 5672 5671 5670 5669 5668 5666 5664 5662 5660 5659 5657 5654 5652 5649 5646 5643 5640 5637 5635 5632 5629 5626 5623 5620 5617 5614
5662 5662 5662 5663 5663 5662 5662 5662 5662 5663 5663 5663 5663 5663 5663 5664 5664 5665 5665 5665 5664 5663 5662 5660 5657 5655 5653 5652 5650 5647 5645 5642 5639 5636 5634 5631 5628 5625 5622 5619 5616 5613 5609
5651 5651 5651 5652 5652 5652 5652 5652 5652 5651 5652 5652 5651 5650 5652 5655 5656 5657 5658 5658 5659 5658 5657 5655 5653 5651 5649 5647 5645 5642 5640 5638 5635 5632 5629 5627 5624 5621 5618 5614 5611 5608 5605
5639 5640 5640 5640 5640 5640 5641 5641 5641 5640 5641 5642 5640 5638 5638 5641 5646 5650 5650 5650 5651 5651 5651 5650 5648 5646 5644 5642 5640 5638 5635 5633 5631 5628 5625 5622 5620 5617 5614 5610 5607 5603 5600
5627 5627 5628 5628 5628 5629 5629 5630 5630 5629 5629 5631 5632 5631 5629 5632 5635 5639 5643 5644 5644 5644 5644 5644 5643 5642 5640 5638 5635 5633 5630 5628 5626 5623 5620 5618 5615 5612 5609 5606 5602 5598 5595
5615 5615 5616 5616 5617 5617 5618 5619 5620 5620 5619 5620 5621 5625 5627 5629 5626 5627 5631 5635 5636 5636 5636 5637 5637 5636 5635 5633 5631 5628 5625 5623 5621 5618 5615 5613 5610 5607 5604 5601 5598 5594 5590
5603 5603 5604 5604 5605 5606 5607 5608 5609 5609 5610 5611 5613 5614 5616 5618 5620 5619 5620 5623 5625 5628 5629 5629 5628 5628 5628 5627 5625 5623 5620 5618 5615 5612 5610 5607 5605 5602 5599 5596 5593 5589 5584
5591 5592 5592 5593 5593 5594 5595 5596 5598 5599 5600 5602 5604 5605 5607 5609 5612 5612 5612 5613 5615 5619 5620 5621 5621 5621 5621 5620 5619 5616 5614 5612 5609 5607 5604 5601 5599 5596 5593 5590 5587 5583 5579
5578 5580 5581 5581 5582 5583 5584 5585 5586 5588 5590 5591 5594 5596 5599 5601 5604 5605 5604 5604 5605 5607 5610 5612 5614 5614 5613 5613 5612 5610 5608 5606 5603 5601 5598 5595 5592 5590 5587 5584 5581 5577 5573
5567 5568 5570 5570 5572 5572 5573 5573 5575 5578 5580 5581 5584 5586 5588 5592 5594 5596 5596 5595 5594 5596 5599 5603 5605 5606 5606 5605 5604 5602 5600 5598 5596 5594 5592 5589 5586 5583 5580 5577 5574 5571 5567
5556 5557 5558 5559 5561 5562 5562 5563 5565 5567 5569 5571 5573 5575 5578 5582 5584 5586 5588 5589 5586 5586 5591 5594 5595 5598 5597 5595 5595 5593 5592 5591 5589 5587 5585 5583 5580 5577 5574 5570 5567 5563 5560
5544 5545 5546 5548 5550 5552 5552 5553 5554 5556 5557 5560 5562 5565 5568 5571 5574 5576 5578 5580 5580 5581 5583 5588 5588 5589 5588 5587 5586 5585 5584 5584 5582 5580 5578 5576 5573 5570 5567 5564 5560 5557 5553
5532 5534 5535 5537 5539 5541 5541 5542 5544 5545 5546 5549 5551 5554 5558 5560 5563 5566 5568 5569 5571 5571 5572 5578 5579 5579 5578 5578 5578 5577 5576 5576 5575 5574 5572 5569 5567 5564 5561 5558 5554 5551 5547
5521 5523 5524 5526 5529 5531 5531 5532 5534 5535 5536 5539 5542 5544 5547 5549 5553 5556 5557 5558 5561 5562 5563 5565 5567 5568 5568 5569 5569 5568 5568 5568 5567 5566 5565 5563 5561 5558 5555 5552 5548 5544 5541
5511 5512 5514 5515 5518 5520 5521 5522 5524 5526 5528 5530 5533 5535 5537 5539 5542 5546 5547 5549 5551 5554 5554 5555 5556 5557 5558 5558 5558 5559 5559 5559 5558 5558 5557 5556 5554 5552 5549 5546 5542 5538 5534
5500 5502 5504 5505 5507 5509 5512 5513 5515 5517 5519 5521 5523 5526 5528 5531 5534 5537 5539 5541 5542 5543 5544 5545 5545 5546 5546 5547 5547 5548 5548 5549 5549 5549 5549 5548 5546 5544 5542 5539 5536 5532 5528
5489 5491 5493 5495 5496 5498 5502 5503 5505 5508 5510 5513 5515 5517 5521 5524 5526 5529 5532 5533 5534 5534 5534 5535 5536 5537 5537 5537 5538 5539 5538 5539 5539 5539 5539 5539 5537 5535 5534 5532 5529 5526 5523
5479 5480 5482 5484 5486 5489 5492 5494 5496 5498 5502 5505 5507 5510 5513 5516 5519 5523 5525 5526 5527 5527 5528 5529 5529 5530 5532 5532 5531 5530 5529 5527 5528 5531 5528 5529 5528 5527 5527 5525 5523 5520 5517
5469 5471 5472 5475 5477 5480 5483 5485 5487 5490 5493 5497 5500 5503 5506 5510 5512 5514 5516 5518 5519 5521 5524 5526 5525 5527 5528 5528 5525 5522 5521 5521 5522 5521 5518 5519 5519 5519 5520 5519 5517 5514 5511
5461 5462 5464 5466 5468 5472 5474 5477 5479 5483 5486 5490 5493 5496 5499 5502 5504 5506 5507 5509 5512 5515 5517 5519 5521 5523 5523 5522 5520 5519 5516 5512 5511 5511 5510 5509 5510 5510 5512 5511 5510 5507 5504
5453 5454 5456 5458 5461 5464 5467 5469 5472 5475 5479 5483 5487 5490 5493 5496 5499 5499 5499 5501 5505 5508 5510 5512 5514 5515 5515 5514 5511 5508 5505 5502 5503 5503 5502 5501 5502 5501 5501 5502 5502 5500 5497
5445 5447 5449 5452 5454 5457 5460 5462 5464 5467 5471 5476 5480 5484 5487 5490 5492 5492 5493 5494 5497 5500 5502 5503 5504 5505 5505 5505 5504 5504 5501 5498 5496 5496 5496 5493 5493 5490 5490 5492 5492 5490 5488